Retour au catalogue

STARLINK-38177

ActifCommunicationsSSO
NORAD 100234·PAYLOAD·🇺🇸 United States

Lancé May 3, 2026 depuis Vandenberg Space Force Base

Loading…

Prochains Passages (prochaines 24 heures)

TLE

FraisSource: Space-Track

Époque: Sep 14, 2026, 09:28 UTC

1 A0234U 26177X   26257.39472369  .00050475  00000-0  92455-3 0  9996
2 A0234  97.2829 308.1091 0000256  69.3005 290.8273 15.49166052  6417

Suivez STARLINK-38177 en temps réel avec AllMySat

Download on the App Store